Location: Newark
(48.8604°N, 2.3376°E)
Time: 16:18:20
(UTC+00:00)

XW-2C - Pass Details

Date: 07 December 2021
Orbit: 503 x 523 km, 97.5° (Epoch: 17 January)

Event Time Altitude Azimuth Distance (km) Brightness Sun altitude
Rises 16:49:23 0° 164° (SSE) 2,618 ? -8.7°
Reaches altitude 10° 16:51:28 10° 164° (SSE) 1,740 ? -9.0°
Maximum altitude 16:55:13 85° 79° (ENE) 527 ? -9.6°
Drops below altitude 10° 16:59:02 10° 348° (NNW) 1,767 ? -10.2°
Sets 17:01:09 0° 348° (NNW) 2,663 ? -10.5°
